Location: Zagreb
(45.8000°N, 16.0000°E)
Time: 00:01:27
(UTC+01:00)

Transit 2A Rocket - Pass Details

Date: 02 October 2020
Orbit: 586 x 916 km, 66.7° (Epoch: 28 October)

Event Time Altitude Azimuth Distance (km) Brightness Sun altitude
Rises 22:50:04 0° 328° (NNW) 3,489 9.2 -41.3°
Reaches altitude 10° 22:54:12 10° 355° (N) 2,488 8.1 -41.7°
Enters shadow 22:55:19 12° 6° (N) 2,327 7.8 -41.9°
Maximum altitude 22:56:48 13° 22° (NNE) 2,226 - -42.0°
Drops below altitude 10° 22:59:21 10° 50° (NE) 2,390 - -42.3°
Sets 23:03:08 0° 78° (ENE) 3,235 - -42.7°
